Time,TemperatureF,DewpointF,PressureIn,WindDirection,WindDirectionDegrees,WindSpeedMPH,WindSpeedGustMPH,Humidity,HourlyPrecipIn,Conditions,Clouds,dailyrainin,SolarRadiationWatts/m^2,SoftwareType,DateUTC
2013-02-17 00:21:00,50.0,29.0,-100.00,WSW,253,12.0,20.0,44,0.00,,,0.00,497.000000,,2013-02-17 00:21:00,
2013-02-17 00:31:00,50.0,29.0,-100.00,WSW,253,12.0,20.0,44,0.00,,,0.00,497.000000,,2013-02-17 00:31:00,
2013-02-17 00:41:00,50.0,29.0,-100.00,WSW,253,12.0,20.0,44,0.00,,,0.00,497.000000,,2013-02-17 00:41:00,
2013-02-17 00:51:00,50.0,29.0,-100.00,WSW,253,12.0,20.0,44,0.00,,,0.00,497.000000,,2013-02-17 00:51:00,
2013-02-17 01:21:00,46.0,26.0,-100.00,WSW,257,10.0,21.0,45,0.00,,,0.00,242.000000,,2013-02-17 01:21:00,
2013-02-17 01:31:00,46.0,26.0,-100.00,WSW,257,10.0,21.0,45,0.00,,,0.00,242.000000,,2013-02-17 01:31:00,
2013-02-17 01:41:00,46.0,26.0,-100.00,WSW,257,10.0,21.0,45,0.00,,,0.00,242.000000,,2013-02-17 01:41:00,
2013-02-17 01:52:00,46.0,26.0,-100.00,WSW,257,10.0,21.0,45,0.00,,,0.00,242.000000,,2013-02-17 01:52:00,
2013-02-17 02:21:00,41.0,28.0,-100.00,West,274,11.0,21.0,59,0.00,,,0.00,20.000000,,2013-02-17 02:21:00,
2013-02-17 02:31:00,41.0,28.0,-100.00,West,274,11.0,21.0,59,0.00,,,0.00,20.000000,,2013-02-17 02:31:00,
2013-02-17 02:41:00,41.0,28.0,-100.00,West,274,11.0,21.0,59,0.00,,,0.00,20.000000,,2013-02-17 02:41:00,
2013-02-17 02:51:00,41.0,28.0,-100.00,West,274,11.0,21.0,59,0.00,,,0.00,20.000000,,2013-02-17 02:51:00,
2013-02-17 03:11:00,37.0,21.0,-100.00,West,264,5.0,15.0,53,0.00,,,0.00,1.000000,,2013-02-17 03:11:00,
2013-02-17 03:21:00,37.0,21.0,-100.00,West,264,5.0,15.0,53,0.00,,,0.00,1.000000,,2013-02-17 03:21:00,
2013-02-17 03:31:00,37.0,21.0,-100.00,West,264,5.0,15.0,53,0.00,,,0.00,1.000000,,2013-02-17 03:31:00,
2013-02-17 03:42:00,37.0,21.0,-100.00,West,264,5.0,15.0,53,0.00,,,0.00,1.000000,,2013-02-17 03:42:00,
2013-02-17 03:51:00,37.0,21.0,-100.00,West,264,5.0,15.0,53,0.00,,,0.00,1.000000,,2013-02-17 03:51:00,
2013-02-17 04:21:00,34.0,20.0,-100.00,West,270,3.0,8.0,55,0.00,,,0.00,1.000000,,2013-02-17 04:21:00,
2013-02-17 04:31:00,34.0,20.0,-100.00,West,270,3.0,8.0,55,0.00,,,0.00,1.000000,,2013-02-17 04:31:00,
2013-02-17 04:41:00,34.0,20.0,-100.00,West,270,3.0,8.0,55,0.00,,,0.00,1.000000,,2013-02-17 04:41:00,
2013-02-17 04:51:00,34.0,20.0,-100.00,West,270,3.0,8.0,55,0.00,,,0.00,1.000000,,2013-02-17 04:51:00,
2013-02-17 05:22:00,32.0,16.0,-100.00,WNW,303,6.0,9.0,52,0.00,,,0.00,1.000000,,2013-02-17 05:22:00,
2013-02-17 05:32:00,32.0,16.0,-100.00,WNW,303,6.0,9.0,52,0.00,,,0.00,1.000000,,2013-02-17 05:32:00,
2013-02-17 05:42:00,32.0,16.0,-100.00,WNW,303,6.0,9.0,52,0.00,,,0.00,1.000000,,2013-02-17 05:42:00,
2013-02-17 05:52:00,32.0,16.0,-100.00,WNW,303,6.0,9.0,52,0.00,,,0.00,1.000000,,2013-02-17 05:52:00,
2013-02-17 06:21:00,29.0,18.0,-100.00,NW,309,7.0,11.0,62,0.00,,,0.00,1.000000,,2013-02-17 06:21:00,
2013-02-17 06:31:00,29.0,18.0,-100.00,NW,309,7.0,11.0,62,0.00,,,0.00,1.000000,,2013-02-17 06:31:00,
2013-02-17 06:41:00,29.0,18.0,-100.00,NW,309,7.0,11.0,62,0.00,,,0.00,1.000000,,2013-02-17 06:41:00,
2013-02-17 06:51:00,29.0,18.0,-100.00,NW,309,7.0,11.0,62,0.00,,,0.00,1.000000,,2013-02-17 06:51:00,
2013-02-17 07:21:00,27.0,18.0,-100.00,East,81,2.0,9.0,69,0.00,,,0.00,1.000000,,2013-02-17 07:21:00,
2013-02-17 07:31:00,27.0,18.0,-100.00,East,81,2.0,9.0,69,0.00,,,0.00,1.000000,,2013-02-17 07:31:00,
2013-02-17 07:41:00,27.0,18.0,-100.00,East,81,2.0,9.0,69,0.00,,,0.00,1.000000,,2013-02-17 07:41:00,
2013-02-17 07:51:00,27.0,18.0,-100.00,East,81,2.0,9.0,69,0.00,,,0.00,1.000000,,2013-02-17 07:51:00,
2013-02-17 08:21:00,25.0,18.0,-100.00,ESE,117,2.0,3.0,74,0.00,,,-99.99,1.000000,,2013-02-17 08:21:00,
2013-02-17 08:31:00,25.0,18.0,-100.00,ESE,117,2.0,3.0,74,0.00,,,-99.99,1.000000,,2013-02-17 08:31:00,
2013-02-17 08:42:00,25.0,18.0,-100.00,ESE,117,2.0,3.0,74,0.00,,,-99.99,1.000000,,2013-02-17 08:42:00,
2013-02-17 08:52:00,25.0,18.0,-100.00,ESE,117,2.0,3.0,74,0.00,,,-99.99,1.000000,,2013-02-17 08:52:00,
2013-02-17 09:21:00,27.0,18.0,-100.00,WSW,256,3.0,4.0,69,0.00,,,-99.99,1.000000,,2013-02-17 09:21:00,
2013-02-17 09:31:00,27.0,18.0,-100.00,WSW,256,3.0,4.0,69,0.00,,,-99.99,1.000000,,2013-02-17 09:31:00,
2013-02-17 09:41:00,27.0,18.0,-100.00,WSW,256,3.0,4.0,69,0.00,,,-99.99,1.000000,,2013-02-17 09:41:00,
2013-02-17 09:51:00,27.0,18.0,-100.00,WSW,256,3.0,4.0,69,0.00,,,-99.99,1.000000,,2013-02-17 09:51:00,
2013-02-17 10:21:00,24.0,17.0,-100.00,East,91,2.0,4.0,75,0.00,,,-99.99,1.000000,,2013-02-17 10:21:00,
2013-02-17 10:31:00,24.0,17.0,-100.00,East,91,2.0,4.0,75,0.00,,,-99.99,1.000000,,2013-02-17 10:31:00,
2013-02-17 10:41:00,24.0,17.0,-100.00,East,91,2.0,4.0,75,0.00,,,-99.99,1.000000,,2013-02-17 10:41:00,
2013-02-17 10:51:00,24.0,17.0,-100.00,East,91,2.0,4.0,75,0.00,,,-99.99,1.000000,,2013-02-17 10:51:00,
2013-02-17 11:21:00,23.0,17.0,-100.00,ENE,66,3.0,5.0,76,0.00,,,0.00,1.000000,,2013-02-17 11:21:00,
2013-02-17 11:32:00,23.0,17.0,-100.00,ENE,66,3.0,5.0,76,0.00,,,0.00,1.000000,,2013-02-17 11:32:00,
2013-02-17 11:41:00,23.0,17.0,-100.00,ENE,66,3.0,5.0,76,0.00,,,0.00,1.000000,,2013-02-17 11:41:00,
2013-02-17 11:52:00,23.0,17.0,-100.00,ENE,66,3.0,5.0,76,0.00,,,0.00,1.000000,,2013-02-17 11:52:00,
2013-02-17 12:22:00,21.0,17.0,-100.00,East,83,3.0,5.0,85,0.00,,,0.00,1.000000,,2013-02-17 12:22:00,
2013-02-17 12:32:00,21.0,17.0,-100.00,East,83,3.0,5.0,85,0.00,,,0.00,1.000000,,2013-02-17 12:32:00,
2013-02-17 12:42:00,21.0,17.0,-100.00,East,83,3.0,5.0,85,0.00,,,0.00,1.000000,,2013-02-17 12:42:00,
2013-02-17 12:52:00,21.0,17.0,-100.00,East,83,3.0,5.0,85,0.00,,,0.00,1.000000,,2013-02-17 12:52:00,
2013-02-17 13:21:00,20.0,17.0,-100.00,ENE,78,3.0,5.0,87,0.00,,,-99.99,1.000000,,2013-02-17 13:21:00,
2013-02-17 13:32:00,20.0,17.0,-100.00,ENE,78,3.0,5.0,87,0.00,,,-99.99,1.000000,,2013-02-17 13:32:00,
2013-02-17 13:41:00,20.0,17.0,-100.00,ENE,78,3.0,5.0,87,0.00,,,-99.99,1.000000,,2013-02-17 13:41:00,
2013-02-17 13:51:00,20.0,17.0,-100.00,ENE,78,3.0,5.0,87,0.00,,,-99.99,1.000000,,2013-02-17 13:51:00,
2013-02-17 14:21:00,18.0,16.0,-100.00,ENE,71,4.0,8.0,90,0.00,,,0.00,1.000000,,2013-02-17 14:21:00,
2013-02-17 14:32:00,18.0,16.0,-100.00,ENE,71,4.0,8.0,90,0.00,,,0.00,1.000000,,2013-02-17 14:32:00,
2013-02-17 14:42:00,18.0,16.0,-100.00,ENE,71,4.0,8.0,90,0.00,,,0.00,1.000000,,2013-02-17 14:42:00,
2013-02-17 14:52:00,18.0,16.0,-100.00,ENE,71,4.0,8.0,90,0.00,,,0.00,1.000000,,2013-02-17 14:52:00,
2013-02-17 15:21:00,17.0,15.0,-100.00,ENE,77,5.0,8.0,92,0.00,,,0.00,1.000000,,2013-02-17 15:21:00,
2013-02-17 15:31:00,17.0,15.0,-100.00,ENE,77,5.0,8.0,92,0.00,,,0.00,1.000000,,2013-02-17 15:31:00,
2013-02-17 15:41:00,17.0,15.0,-100.00,ENE,77,5.0,8.0,92,0.00,,,0.00,1.000000,,2013-02-17 15:41:00,
2013-02-17 15:52:00,17.0,15.0,-100.00,ENE,77,5.0,8.0,92,0.00,,,0.00,1.000000,,2013-02-17 15:52:00,
2013-02-17 16:21:00,19.0,16.0,-100.00,ENE,61,5.0,8.0,89,0.00,,,-99.99,21.000000,,2013-02-17 16:21:00,
2013-02-17 16:31:00,19.0,16.0,-100.00,ENE,61,5.0,8.0,89,0.00,,,-99.99,21.000000,,2013-02-17 16:31:00,
2013-02-17 16:41:00,19.0,16.0,-100.00,ENE,61,5.0,8.0,89,0.00,,,-99.99,21.000000,,2013-02-17 16:41:00,
2013-02-17 16:51:00,19.0,16.0,-100.00,ENE,61,5.0,8.0,89,0.00,,,-99.99,21.000000,,2013-02-17 16:51:00,
2013-02-17 17:21:00,27.0,19.0,-100.00,NE,47,4.0,9.0,72,0.00,,,0.00,229.000000,,2013-02-17 17:21:00,
2013-02-17 17:32:00,27.0,19.0,-100.00,NE,47,4.0,9.0,72,0.00,,,0.00,229.000000,,2013-02-17 17:32:00,
2013-02-17 17:41:00,27.0,19.0,-100.00,NE,47,4.0,9.0,72,0.00,,,0.00,229.000000,,2013-02-17 17:41:00,
2013-02-17 17:52:00,27.0,19.0,-100.00,NE,47,4.0,9.0,72,0.00,,,0.00,229.000000,,2013-02-17 17:52:00,
2013-02-17 18:21:00,32.0,19.0,-100.00,NNE,17,4.0,6.0,59,0.00,,,0.00,310.000000,,2013-02-17 18:21:00,
2013-02-17 18:33:00,32.0,19.0,-100.00,NNE,17,4.0,6.0,59,0.00,,,0.00,310.000000,,2013-02-17 18:33:00,
2013-02-17 18:42:00,32.0,19.0,-100.00,NNE,17,4.0,6.0,59,0.00,,,0.00,310.000000,,2013-02-17 18:42:00,
2013-02-17 18:52:00,32.0,19.0,-100.00,NNE,17,4.0,6.0,59,0.00,,,0.00,310.000000,,2013-02-17 18:52:00,
2013-02-17 19:21:00,36.0,21.0,-100.00,SSW,202,2.0,8.0,53,0.00,,,0.00,250.000000,,2013-02-17 19:21:00,
2013-02-17 19:32:00,36.0,21.0,-100.00,SSW,202,2.0,8.0,53,0.00,,,0.00,250.000000,,2013-02-17 19:32:00,
2013-02-17 19:41:00,36.0,21.0,-100.00,SSW,202,2.0,8.0,53,0.00,,,0.00,250.000000,,2013-02-17 19:41:00,
2013-02-17 19:51:00,36.0,21.0,-100.00,SSW,202,2.0,8.0,53,0.00,,,0.00,250.000000,,2013-02-17 19:51:00,
2013-02-17 20:21:00,39.0,22.0,-100.00,WSW,254,5.0,9.0,50,0.00,,,0.00,619.000000,,2013-02-17 20:21:00,
2013-02-17 20:32:00,39.0,22.0,-100.00,WSW,254,5.0,9.0,50,0.00,,,0.00,619.000000,,2013-02-17 20:32:00,
2013-02-17 20:42:00,39.0,22.0,-100.00,WSW,254,5.0,9.0,50,0.00,,,0.00,619.000000,,2013-02-17 20:42:00,
2013-02-17 20:52:00,39.0,22.0,-100.00,WSW,254,5.0,9.0,50,0.00,,,0.00,619.000000,,2013-02-17 20:52:00,
2013-02-17 21:21:00,40.0,22.0,-100.00,West,264,6.0,10.0,48,0.00,,,0.00,674.000000,,2013-02-17 21:21:00,
2013-02-17 21:31:00,40.0,22.0,-100.00,West,264,6.0,10.0,48,0.00,,,0.00,674.000000,,2013-02-17 21:31:00,
2013-02-17 21:41:00,40.0,22.0,-100.00,West,264,6.0,10.0,48,0.00,,,0.00,674.000000,,2013-02-17 21:41:00,
2013-02-17 21:52:00,40.0,22.0,-100.00,West,264,6.0,10.0,48,0.00,,,0.00,674.000000,,2013-02-17 21:52:00,
2013-02-17 22:21:00,41.0,21.0,-100.00,WSW,252,7.0,11.0,45,0.00,,,-99.99,652.000000,,2013-02-17 22:21:00,
2013-02-17 22:32:00,41.0,21.0,-100.00,WSW,252,7.0,11.0,45,0.00,,,-99.99,652.000000,,2013-02-17 22:32:00,
2013-02-17 22:41:00,41.0,21.0,-100.00,WSW,252,7.0,11.0,45,0.00,,,-99.99,652.000000,,2013-02-17 22:41:00,
2013-02-17 22:52:00,41.0,21.0,-100.00,WSW,252,7.0,11.0,45,0.00,,,-99.99,652.000000,,2013-02-17 22:52:00,
2013-02-17 23:21:00,43.0,18.0,-100.00,West,271,6.0,10.0,36,0.00,,,0.00,566.000000,,2013-02-17 23:21:00,
2013-02-17 23:31:00,43.0,18.0,-100.00,West,271,6.0,10.0,36,0.00,,,0.00,566.000000,,2013-02-17 23:31:00,
2013-02-17 23:41:00,43.0,18.0,-100.00,West,271,6.0,10.0,36,0.00,,,0.00,566.000000,,2013-02-17 23:41:00,
2013-02-17 23:52:00,43.0,18.0,-100.00,West,271,6.0,10.0,36,0.00,,,0.00,566.000000,,2013-02-17 23:52:00,